Погода в Ахмете

Грузия     42°01′57″N   45°12′19″E
темп.,
°C
ветер,
м/с
пор.,
м/с
влажн.,
%
обл.,
%
осадки,
мм/ч
давл.,
гПа
погр.,
м
22 октября, пт
пт2201:00+4зюз22860 0.0 103113
04:00+4зюз22800 0.0 102913
07:00+4зюз22730 0.0 102813
10:00+11ссз11480 0.0 1026278
13:00+15всв21400 0.0 1024551
16:00+14всв21440 0.0 1023376
19:00+9юз11660 0.0 102310
22:00+9юз21670 0.0 102410
23 октября, сб
сб2301:00+8юз11690 0.0 102310
04:00+7зюз22700 0.0 102310
07:00+7зюз22670 0.0 102213
10:00+13ссв10450 0.0 1020280
13:00+15всв31440 0.0 1020544
16:00+15св21500 0.0 1018341
19:00+11зюз11670 0.0 101910
22:00+9зюз11590 0.0 102010
24 октября, вс
вс2401:00+9зюз22580 0.0 102012
04:00+8зюз32600 0.0 101925
07:00+8зюз33640 0.0 101831
10:00+14зюз22475 0.0 1018296
13:00+17всв213849 0.0 10171038
16:00+16всв1144100 0.0 1016552
19:00+11зюз11619 0.0 101810
22:00+9зюз225594 0.0 101812
25 октября, пн
пн2501:00+9зюз225464 0.0 101817
04:00+8зюз335112 0.0 101843
07:00+8зюз4674100 0.0 1018204
10:00+11з41158100 0.0 10171009
13:00+10з101963100 0.0 10181397
16:00+9з1120524 0.0 10181233
19:00+7з815589 0.0 1021889
22:00+6зюз485886 0.0 1023482
26 октября, вт
вт2601:00+3зюз34745 0.0 102577
04:00+2зюз34813 0.0 102682
07:00+2зюз34801 0.0 102867
10:00+7з23520 0.0 1028419
13:00+10всв32401 0.0 10271257
16:00+9всв32531 0.0 1027941
19:00+4в11856 0.0 103111
22:00+5св018284 0.0 1032207